Regional Weather Roundup
Issued by NWS Goodland, KS

Home | Current Version | Previous Version | Graphics & Text | Print | Product List | Glossary On
Versions: 1 2 3 4 5 6 7 8 9 10 11 12 13 14 15 16 17 18 19 20 21 22 23 24 25 26 27 28 29 30 31 32 33 34 35 36 37 38 39 40 41 42 43 44 45 46 47 48 49 50
000
ASUS43 KGLD 251908
RWRGLD

GOODLAND FORECAST AREA HOURLY WEATHER ROUNDUP
NATIONAL WEATHER SERVICE GOODLAND KS
100 PM MDT SAT APR 25 2015

...OFFICIAL OBSERVATIONS...

CITY           SKY/WX    TMP DP  RH WIND       PRES   REMARKS
GOODLAND KS    SUNNY     68  43  40 N10       29.71R
HILL CITY KS   MOSUNNY   70  53  54 N8        29.66F
IMPERIAL NEB   MOSUNNY   66  43  43 CALM      29.69F
MCCOOK NEB     MOSUNNY   69  49  48 NE8       29.67F
AKRON CO       SUNNY     68  35  29 NE9       29.72F
BURLINGTON CO  SUNNY     69  41  36 N14       29.73S
LIMON CO       SUNNY     67  30  25 SE13      29.74F
$$

...UNOFFICIAL OBSERVATIONS...

CITY           SKY/WX    TMP DP  RH WIND       PRES   REMARKS
LENORA KS        N/A     68  32  26 MISG        N/A
$$



USA.gov is the U.S. government's official web portal to all federal, state and local government web resources and services.